QPF
0.00 0.00 0.00 0.00 0.00 0.00 0.00 0.00 0.00 0.00 0.00 0.00 0.00 0.00 0.00 0.00 0.00 0.00 0.00 0.00 0.00 0.00 0.00 0.00 0.00 0.00 0.01 0.00 0.00 0.00 0.02 0.00 0.03 0.00 0.00 0.00 0.00 0.00 0.00 0.00 0.00 0.00
0.00 0.00 0.00 0.00 0.00 0.00 0.00 0.00 0.00 0.00 0.00 0.00 0.00 0.00 0.00 0.00 0.00 0.00 0.00 0.00 0.00 0.00 0.00 0.00 0.00 0.00 0.00 0.00 0.00 0.00 0.00 0.01 0.00 0.03 0.00 0.00 0.00 0.00 0.00 0.00 0.00 0.00
0.00 0.00 0.00 0.00 0.00 0.00 0.00 0.00 0.00 0.00 0.00 0.00 0.00 0.00 0.00 0.00 0.00 0.00 0.00 0.00 0.00 0.00 0.00 0.00 0.00 0.00 0.00 0.00 0.01 0.00 0.00 0.00 0.00 0.00 0.00 0.00 0.00 0.00 0.04 0.00 0.00 0.00
0.00 0.00 0.00 0.00 0.00 0.00 0.00 0.00 0.00 0.00 0.00 0.00 0.00 0.00 0.00 0.00 0.00 0.00 0.00 0.00 0.00 0.00 0.00 0.00 0.00 0.00 0.00 0.00 0.01 0.00 0.00 0.02 0.00 0.00 0.00 0.00 0.00 0.00 0.00 0.00 0.00 0.00
0.00 0.00 0.00 0.00 0.00 0.00 0.00 0.00 0.00 0.00 0.00 0.00 0.00 0.00 0.00 0.00 0.00 0.00 0.00 0.00 0.00 0.00 0.00 0.00 0.00 0.00 0.00 0.00 0.00 0.00 0.00 0.02 0.01 0.00 0.00 0.01 0.00 0.00 0.00 0.00 0.00 0.00
0.00 0.00 0.00 0.00 0.00 0.00 0.00 0.00 0.00 0.00 0.00 0.00 0.00 0.00 0.00 0.00 0.00 0.00 0.00 0.00 0.00 0.00 0.00 0.00 0.00 0.00 0.00 0.00 0.00 0.00 0.00 0.00 0.00 0.00 0.00 0.00 0.00 0.00 0.00 0.00 0.00 0.00
0.00 0.00 0.00 0.00 0.00 0.00 0.00 0.00 0.00 0.00 0.00 0.00 0.00 0.00 0.00 0.00 0.00 0.00 0.00 0.00 0.00 0.00 0.00 0.00 0.00 0.00 0.00 0.00 0.00 0.00 0.00 0.00 0.00 0.00 0.00 0.00 0.00 0.00 0.00 0.00 0.00 0.00
0.00 0.00 0.00 0.00 0.00 0.00 0.00 0.00 0.00 0.00 0.00 0.00 0.00 0.00 0.00 0.00 0.00 0.00 0.00 0.00 0.00 0.00 0.00 0.00 0.00 0.00 0.00 0.00 0.00 0.00 0.00 0.00 0.00 0.00 0.00 0.00 0.00 0.00 0.00 0.00 0.00 0.00
0.00 0.00 0.00 0.00 0.00 0.00 0.00 0.00 0.00 0.00 0.00 0.00 0.00 0.00 0.00 0.00 0.00 0.00 0.00 0.00 0.00 0.00 0.00 0.00 0.00 0.00 0.00 0.00 0.00 0.00 0.00 0.00 0.00 0.00 0.00 0.00 0.00 0.00 0.00 0.00 0.00 0.00
0.00 0.00 0.00 0.00 0.00 0.00 0.00 0.00 0.00 0.00 0.00 0.00 0.00 0.00 0.00 0.00 0.00 0.00 0.00 0.00 0.00 0.00 0.00 0.00 0.00 0.00 0.00 0.00 0.00 0.00 0.00 0.00 0.00 0.00 0.00 0.00 0.00 0.00 0.00 0.00 0.00 0.00
0.00 0.00 0.00 0.00 0.00 0.00 0.00 0.00 0.00 0.00 0.00 0.00 0.00 0.00 0.00 0.00 0.00 0.00 0.00 0.00 0.00 0.00 0.00 0.00 0.00 0.00 0.00 0.00 0.00 0.00 0.00 0.00 0.00 0.00 0.00 0.00 0.00 0.00 0.00 0.00 0.00 0.00
0.03 0.01 0.00 0.00 0.00 0.00 0.00 0.00 0.00 0.00 0.00 0.00 0.00 0.00 0.00 0.00 0.00 0.00 0.00 0.00 0.00 0.00 0.00 0.00 0.00 0.00 0.00 0.00 0.00 0.00 0.00 0.00 0.00 0.00 0.00 0.00 0.00 0.00 0.00 0.00 0.00 0.00
0.10 0.00 0.01 0.00 0.00 0.00 0.00 0.00 0.00 0.00 0.00 0.00 0.00 0.00 0.00 0.00 0.00 0.00 0.00 0.00 0.00 0.00 0.00 0.00 0.00 0.00 0.00 0.00 0.00 0.00 0.00 0.00 0.00 0.00 0.00 0.00 0.00 0.00 0.00 0.00 0.00 0.00
0.17 0.35 0.28 0.01 0.01 0.00 0.00 0.00 0.00 0.00 0.00 0.00 0.00 0.00 0.00 0.00 0.00 0.00 0.00 0.00 0.00 0.00 0.00 0.00 0.00 0.00 0.00 0.00 0.00 0.00 0.00 0.00 0.00 0.00 0.00 0.00 0.00 0.00 0.00 0.00 0.00 0.00
0.52 0.59 0.33 0.09 0.02 0.00 0.00 0.00 0.00 0.00 0.00 0.00 0.00 0.00 0.00 0.00 0.00 0.00 0.00 0.00 0.00 0.00 0.00 0.00 0.00 0.00 0.00 0.00 0.00 0.00 0.00 0.00 0.00 0.00 0.00 0.00 0.00 0.00 0.00 0.00 0.00 0.00
0.50 0.55 0.39 0.13 0.03 0.01 0.00 0.01 0.00 0.00 0.00 0.00 0.00 0.00 0.00 0.00 0.00 0.00 0.00 0.00 0.00 0.00 0.00 0.00 0.00 0.00 0.00 0.00 0.00 0.00 0.00 0.00 0.00 0.00 0.00 0.00 0.00 0.00 0.00 0.00 0.00 0.00
0.16 0.02 0.03 0.04 0.14 0.07 0.00 0.02 0.00 0.00 0.00 0.00 0.00 0.00 0.00 0.00 0.00 0.00 0.00 0.00 0.00 0.00 0.00 0.00 0.00 0.00 0.00 0.00 0.00 0.00 0.00 0.00 0.00 0.00 0.00 0.00 0.00 0.00 0.00 0.00 0.00 0.00
0.05 0.03 0.04 0.03 0.00 0.02 0.01 0.06 0.03 0.05 0.01 0.00 0.00 0.00 0.00 0.00 0.00 0.00 0.00 0.00 0.00 0.00 0.00 0.00 0.00 0.00 0.00 0.00 0.00 0.00 0.00 0.00 0.00 0.00 0.00 0.00 0.00 0.00 0.00 0.00 0.00 0.00
0.18 0.16 0.03 0.04 0.00 0.01 0.25 0.71 0.27 0.20 0.18 0.15 0.11 0.01 0.00 0.00 0.00 0.00 0.00 0.00 0.00 0.00 0.00 0.00 0.00 0.00 0.00 0.00 0.00 0.00 0.00 0.00 0.00 0.00 0.00 0.00 0.00 0.00 0.00 0.00 0.00 0.00
0.06 0.02 0.09 0.05 0.02 0.03 0.09 0.15 0.23 0.24 0.32 0.62 0.37 0.47 0.10 0.01 0.00 0.00 0.00 0.00 0.00 0.00 0.00 0.00 0.00 0.00 0.00 0.00 0.00 0.00 0.00 0.00 0.00 0.00 0.00 0.00 0.00 0.00 0.00 0.00 0.00 0.00
0.13 0.19 0.04 0.14 0.13 0.05 0.18 0.22 0.33 0.64 0.62 0.75 0.79 0.55 0.41 0.10 0.02 0.00 0.00 0.00 0.00 0.00 0.00 0.00 0.00 0.00 0.00 0.00 0.00 0.00 0.00 0.00 0.00 0.00 0.00 0.00 0.00 0.00 0.00 0.00 0.00 0.00
0.03 0.05 0.28 0.20 0.34 0.56 0.31 0.50 0.30 0.65 0.78 0.27 0.47 0.29 0.18 0.27 0.08 0.01 0.01 0.00 0.00 0.00 0.00 0.00 0.00 0.00 0.00 0.00 0.00 0.00 0.00 0.00 0.00 0.00 0.00 0.00 0.00 0.00 0.00 0.00 0.00 0.00
0.19 0.21 0.21 0.33 0.57 0.39 0.20 0.32 0.50 0.18 0.32 0.43 0.33 0.24 0.09 0.05 0.09 0.02 0.01 0.01 0.00 0.00 0.00 0.01 0.00 0.00 0.00 0.00 0.00 0.00 0.00 0.00 0.00 0.00 0.00 0.00 0.00 0.00 0.00 0.00 0.00 0.00
0.12 0.21 0.29 0.23 0.40 0.77 0.65 0.08 0.04 0.03 0.08 0.31 0.18 0.10 0.04 0.04 0.05 0.02 0.02 0.02 0.05 0.14 0.11 0.07 0.05 0.00 0.00 0.00 0.00 0.00 0.00 0.00 0.00 0.00 0.00 0.00 0.00 0.00 0.00 0.00 0.00 0.00
0.01 0.04 0.09 0.13 0.39 0.64 0.52 0.98 0.11 0.04 0.01 0.01 0.01 0.01 0.01 0.00 0.00 0.01 0.01 0.01 0.02 0.02 0.01 0.03 0.02 0.02 0.01 0.00 0.00 0.00 0.00 0.00 0.00 0.00 0.00 0.00 0.00 0.00 0.00 0.00 0.00 0.00
0.00 0.02 0.02 0.03 0.07 0.60 0.23 0.67 0.24 0.07 0.11 0.07 0.01 0.00 0.00 0.00 0.00 0.00 0.00 0.00 0.01 0.00 0.01 0.01 0.01 0.02 0.07 0.06 0.01 0.00 0.00 0.00 0.00 0.00 0.00 0.00 0.00 0.00 0.00 0.00 0.00 0.00
MSLP
1015.80 1016.00 1016.32 1016.48 1016.60 1016.60 1016.80 1017.08 1017.04 1017.20 1017.28 1017.24 1017.56 1017.52 1017.44 1017.32 1017.04 1017.40 1017.64 1017.72 1017.96 1018.12 1018.28 1018.36 1018.48 1018.72 1018.68 1018.76 1018.88 1019.12 1019.28 1019.32 1019.48 1019.36 1019.48 1019.52 1019.72 1019.76 1019.80 1019.80 1019.72 1019.72
1015.64 1015.76 1015.96 1016.16 1016.40 1016.40 1016.48 1016.56 1016.76 1016.88 1017.08 1017.00 1017.00 1017.08 1017.04 1017.08 1017.08 1017.12 1017.44 1017.68 1017.80 1017.96 1018.04 1018.24 1018.36 1018.48 1018.60 1018.76 1018.84 1019.08 1019.32 1019.36 1019.64 1019.12 1019.56 1019.56 1019.64 1019.52 1019.64 1019.56 1019.60 1019.48
1015.44 1015.64 1015.88 1016.16 1016.28 1016.36 1016.28 1016.32 1016.44 1016.60 1016.76 1016.76 1016.72 1016.84 1017.04 1016.88 1017.16 1017.08 1017.20 1017.44 1017.76 1017.80 1017.96 1018.08 1018.24 1018.36 1018.48 1018.56 1018.72 1019.00 1019.24 1019.36 1019.48 1019.28 1019.36 1019.56 1019.48 1019.60 1019.52 1019.36 1019.44 1019.52
1015.24 1015.32 1015.52 1015.64 1015.68 1015.96 1016.00 1016.24 1016.36 1016.48 1016.44 1016.72 1016.80 1016.64 1016.72 1016.64 1016.92 1017.20 1017.24 1017.36 1017.56 1017.68 1017.80 1017.92 1018.08 1018.20 1018.32 1018.44 1018.64 1018.88 1018.96 1019.16 1019.12 1019.08 1019.36 1019.36 1019.40 1019.40 1019.48 1019.36 1019.24 1019.24
1015.04 1015.16 1015.20 1015.32 1015.32 1015.48 1015.72 1016.00 1016.20 1016.32 1016.40 1016.40 1016.44 1016.36 1016.56 1016.60 1016.88 1017.12 1017.32 1017.44 1017.48 1017.64 1017.68 1017.88 1017.92 1018.04 1018.16 1018.36 1018.56 1018.92 1018.88 1019.12 1018.96 1019.04 1019.40 1019.60 1019.40 1019.40 1019.36 1019.32 1019.44 1019.52
1014.80 1014.84 1014.92 1015.12 1015.16 1015.36 1015.68 1015.84 1015.88 1016.04 1016.16 1016.20 1016.32 1016.20 1016.32 1016.40 1016.68 1016.92 1017.16 1017.40 1017.44 1017.56 1017.60 1017.68 1017.92 1017.96 1018.00 1018.28 1018.48 1018.76 1018.84 1018.96 1018.92 1019.04 1019.36 1019.60 1019.48 1019.16 1019.08 1019.16 1019.44 1019.64
1014.80 1014.84 1014.88 1014.80 1015.04 1015.12 1015.36 1015.48 1015.60 1015.64 1015.84 1015.76 1015.84 1016.16 1016.12 1016.36 1016.56 1016.72 1016.88 1017.08 1017.20 1017.36 1017.40 1017.56 1017.80 1018.00 1017.88 1018.12 1018.44 1018.72 1018.76 1018.76 1018.72 1018.92 1019.32 1019.40 1019.40 1019.40 1019.04 1019.04 1019.28 1019.56
1014.52 1014.56 1014.64 1014.72 1014.92 1014.96 1015.20 1015.24 1015.36 1015.48 1015.48 1015.60 1015.84 1015.84 1015.84 1016.16 1016.36 1016.40 1016.52 1016.72 1016.96 1017.12 1017.24 1017.28 1017.52 1017.76 1017.80 1017.96 1018.40 1018.68 1018.80 1018.64 1018.80 1018.88 1019.16 1019.32 1019.28 1019.56 1019.40 1019.16 1019.20 1019.56
1014.16 1014.44 1014.56 1014.72 1014.84 1014.80 1015.00 1015.00 1015.08 1015.20 1015.16 1015.48 1015.56 1015.60 1015.60 1015.76 1016.08 1016.24 1016.32 1016.48 1016.76 1016.88 1017.08 1017.20 1017.36 1017.56 1017.64 1017.80 1018.12 1018.44 1018.72 1018.68 1018.52 1018.80 1019.08 1019.32 1019.44 1019.48 1019.40 1019.20 1019.36 1019.48
1014.16 1014.20 1014.44 1014.60 1014.76 1014.60 1014.76 1014.76 1014.68 1014.88 1014.96 1015.20 1015.28 1015.24 1015.56 1015.56 1015.64 1015.96 1016.16 1016.44 1016.68 1016.80 1016.92 1017.04 1017.20 1017.36 1017.52 1017.64 1017.84 1018.08 1018.40 1018.56 1018.48 1018.52 1018.72 1018.92 1019.16 1019.20 1019.24 1019.24 1019.32 1019.48
1014.16 1014.24 1014.36 1014.48 1014.52 1014.44 1014.52 1014.48 1014.48 1014.56 1014.72 1015.00 1015.04 1015.16 1015.12 1015.40 1015.60 1015.64 1016.04 1016.36 1016.60 1016.72 1016.80 1016.92 1017.00 1017.12 1017.40 1017.52 1017.56 1017.60 1017.88 1018.16 1018.32 1018.40 1018.44 1018.56 1018.68 1018.80 1018.80 1018.92 1019.08 1019.20
1015.40 1014.68 1014.36 1014.28 1014.32 1014.32 1014.28 1014.28 1014.28 1014.32 1014.52 1014.68 1014.80 1015.04 1014.96 1015.00 1015.44 1015.56 1015.76 1016.16 1016.28 1016.40 1016.48 1016.64 1016.72 1016.88 1017.12 1017.32 1017.36 1017.40 1017.60 1017.80 1018.00 1018.20 1018.24 1018.32 1018.36 1018.44 1018.52 1018.52 1018.72 1018.80
1015.52 1015.56 1014.92 1014.28 1014.28 1014.20 1013.96 1014.00 1014.08 1014.08 1014.16 1014.40 1014.52 1014.72 1014.92 1014.88 1014.96 1015.36 1015.40 1015.68 1015.96 1016.08 1016.28 1016.40 1016.56 1016.68 1016.88 1017.08 1017.20 1017.20 1017.40 1017.64 1017.84 1017.92 1018.08 1018.16 1018.16 1018.20 1018.16 1018.16 1018.28 1018.36
1016.16 1016.12 1016.52 1016.32 1015.64 1014.56 1014.00 1013.72 1013.76 1013.84 1013.88 1013.88 1014.12 1014.60 1014.72 1014.72 1014.68 1014.96 1015.16 1015.32 1015.56 1015.80 1015.92 1016.08 1016.36 1016.56 1016.72 1016.84 1017.00 1017.12 1017.20 1017.40 1017.56 1017.72 1017.88 1017.96 1017.96 1017.92 1017.92 1017.92 1017.88 1017.96
1015.28 1015.28 1015.20 1015.16 1015.36 1015.44 1014.60 1013.96 1013.76 1013.68 1013.68 1013.76 1013.92 1014.16 1014.28 1014.40 1014.40 1014.36 1014.76 1015.16 1015.28 1015.52 1015.72 1015.84 1016.08 1016.32 1016.40 1016.60 1016.88 1017.04 1017.04 1017.16 1017.24 1017.44 1017.64 1017.80 1017.84 1017.80 1017.72 1017.72 1017.68 1017.52
1015.12 1015.12 1015.00 1014.84 1014.92 1015.04 1014.92 1014.24 1013.76 1013.64 1013.72 1013.76 1013.84 1013.84 1014.00 1014.20 1014.32 1014.36 1014.40 1014.72 1015.12 1015.32 1015.48 1015.68 1015.80 1015.76 1015.88 1016.04 1016.20 1016.52 1016.80 1016.88 1016.92 1017.08 1017.28 1017.48 1017.68 1017.76 1017.68 1017.52 1017.44 1017.36
1015.44 1015.48 1015.32 1015.48 1015.40 1015.16 1014.92 1014.56 1014.20 1013.92 1014.00 1013.96 1013.76 1013.76 1013.88 1014.00 1014.16 1014.44 1014.44 1014.32 1014.60 1014.96 1015.32 1015.40 1015.36 1015.20 1015.36 1015.72 1015.96 1016.08 1016.28 1016.64 1016.88 1016.96 1016.96 1017.16 1017.36 1017.60 1017.80 1017.60 1017.32 1017.12
1015.68 1015.56 1015.52 1015.48 1015.20 1015.00 1014.72 1014.76 1014.64 1014.56 1014.88 1014.84 1014.48 1014.00 1013.92 1013.84 1014.12 1014.20 1014.28 1014.28 1014.20 1014.28 1014.64 1014.84 1014.92 1014.80 1014.96 1015.28 1015.56 1015.80 1015.96 1016.16 1016.40 1016.68 1016.72 1016.88 1017.00 1017.16 1017.28 1017.32 1017.40 1017.24
1015.72 1015.52 1015.44 1015.32 1015.28 1015.16 1015.32 1016.04 1016.04 1015.80 1015.76 1016.36 1016.84 1015.72 1014.36 1014.20 1014.20 1014.16 1014.24 1014.16 1014.16 1014.24 1014.16 1014.08 1014.28 1014.28 1014.60 1014.92 1015.12 1015.36 1015.64 1015.84 1015.96 1016.12 1016.40 1016.52 1016.56 1016.72 1016.84 1017.00 1017.12 1017.24
1016.00 1015.88 1015.72 1015.44 1015.20 1015.16 1015.40 1015.92 1015.92 1015.80 1015.88 1016.44 1016.88 1016.96 1017.08 1015.92 1014.60 1014.24 1014.16 1014.16 1014.16 1014.16 1014.08 1013.80 1013.64 1013.60 1014.00 1014.40 1014.68 1014.96 1015.16 1015.48 1015.56 1015.76 1015.92 1016.00 1016.12 1016.20 1016.28 1016.48 1016.72 1016.96
1015.84 1015.72 1015.68 1015.48 1015.32 1015.28 1015.40 1015.60 1015.52 1015.52 1015.64 1015.68 1015.76 1016.16 1016.56 1016.84 1016.48 1015.28 1014.16 1013.88 1013.84 1013.80 1013.88 1013.76 1013.36 1013.20 1013.52 1013.80 1014.12 1014.44 1014.68 1015.08 1015.16 1015.28 1015.48 1015.64 1015.64 1015.72 1015.84 1015.92 1016.04 1016.20
1015.84 1015.84 1015.80 1015.64 1015.64 1015.64 1015.76 1015.84 1015.68 1015.48 1015.60 1015.48 1015.48 1015.16 1014.92 1015.16 1015.24 1015.12 1014.88 1014.08 1013.56 1013.60 1013.72 1013.80 1013.32 1013.08 1013.36 1013.76 1013.92 1014.08 1014.36 1014.84 1014.92 1015.16 1015.32 1015.40 1015.48 1015.44 1015.52 1015.52 1015.56 1015.72
1015.88 1015.96 1015.96 1015.76 1015.76 1015.84 1015.84 1015.72 1015.64 1015.48 1015.32 1015.28 1015.52 1015.36 1015.40 1015.52 1015.56 1015.28 1014.88 1014.56 1014.24 1013.96 1013.92 1013.88 1013.56 1013.28 1013.32 1013.68 1013.88 1014.08 1014.64 1014.84 1014.80 1015.00 1015.12 1015.24 1015.24 1015.16 1015.16 1015.16 1015.24 1015.28
1015.80 1015.92 1015.92 1015.76 1015.76 1015.92 1015.84 1015.56 1015.20 1014.92 1014.84 1014.72 1015.04 1015.08 1015.16 1015.12 1015.12 1015.04 1014.72 1014.44 1014.56 1015.16 1015.00 1014.80 1014.28 1013.44 1013.36 1013.72 1013.96 1014.16 1014.44 1014.60 1014.72 1014.96 1015.04 1015.08 1015.04 1014.88 1014.84 1014.92 1014.84 1014.84
1015.64 1015.84 1016.16 1016.20 1016.08 1015.88 1015.56 1015.36 1015.16 1014.92 1014.60 1014.52 1014.64 1014.76 1014.96 1014.96 1015.00 1014.84 1014.44 1014.00 1013.72 1013.76 1013.80 1014.08 1013.96 1013.96 1013.92 1014.08 1013.88 1014.08 1014.36 1014.28 1014.44 1014.72 1015.00 1014.92 1014.88 1014.84 1014.60 1014.60 1014.60 1014.48
1015.72 1015.64 1015.76 1015.96 1016.04 1015.76 1015.44 1015.12 1014.76 1014.72 1014.60 1014.64 1014.72 1014.84 1015.00 1014.96 1014.88 1014.84 1014.72 1014.28 1013.76 1013.56 1013.40 1013.12 1013.28 1013.24 1013.44 1013.84 1014.28 1014.04 1013.84 1013.88 1014.00 1014.60 1014.84 1014.72 1014.56 1014.60 1014.72 1014.48 1014.28 1014.24
Thickness
5810 5810 5810 5810 5811 5811 5812 5812 5812 5812 5812 5812 5812 5812 5814 5815 5817 5817 5814 5813 5813 5811 5811 5810 5809 5808 5808 5808 5808 5807 5807 5807 5806 5807 5807 5806 5805 5806 5807 5807 5808 5808
5812 5812 5811 5811 5811 5812 5813 5814 5814 5813 5813 5814 5815 5816 5816 5817 5817 5817 5816 5815 5814 5813 5813 5811 5810 5810 5810 5809 5809 5808 5807 5806 5806 5807 5806 5806 5806 5806 5807 5807 5808 5808
5813 5813 5812 5811 5812 5813 5814 5816 5816 5816 5816 5816 5817 5817 5817 5818 5817 5817 5818 5816 5815 5815 5814 5813 5812 5811 5811 5811 5810 5808 5807 5805 5806 5808 5806 5806 5806 5806 5807 5808 5809 5809
5814 5814 5815 5815 5815 5816 5816 5816 5816 5816 5817 5816 5817 5818 5819 5819 5818 5817 5817 5817 5816 5816 5815 5814 5814 5813 5812 5812 5811 5809 5808 5807 5807 5808 5807 5806 5807 5807 5807 5808 5809 5809
5815 5815 5817 5817 5818 5817 5817 5816 5816 5817 5818 5817 5819 5820 5820 5820 5819 5817 5816 5816 5816 5816 5816 5815 5814 5814 5813 5812 5811 5809 5809 5809 5809 5809 5806 5805 5806 5807 5808 5809 5808 5808
5815 5816 5818 5818 5819 5819 5817 5817 5818 5818 5818 5819 5820 5821 5821 5821 5819 5818 5817 5816 5817 5816 5816 5815 5814 5814 5814 5813 5811 5809 5809 5809 5810 5809 5806 5805 5806 5808 5809 5809 5807 5806
5814 5816 5818 5818 5819 5819 5818 5819 5819 5820 5820 5821 5822 5821 5822 5822 5820 5820 5819 5818 5817 5816 5817 5816 5815 5814 5814 5814 5811 5809 5809 5810 5810 5809 5807 5806 5806 5807 5808 5809 5808 5807
5815 5816 5817 5818 5819 5819 5819 5820 5821 5821 5822 5822 5822 5822 5824 5823 5821 5822 5821 5821 5819 5818 5818 5817 5816 5815 5814 5814 5811 5810 5810 5810 5811 5810 5807 5807 5806 5805 5807 5809 5808 5807
5816 5817 5816 5817 5818 5819 5820 5821 5822 5823 5823 5823 5823 5824 5825 5825 5824 5823 5823 5822 5821 5819 5819 5818 5817 5817 5815 5815 5813 5811 5810 5810 5811 5811 5808 5807 5806 5805 5807 5807 5808 5807
5815 5816 5816 5817 5818 5819 5820 5821 5823 5824 5825 5824 5824 5825 5826 5826 5826 5825 5824 5822 5821 5820 5820 5820 5819 5818 5817 5816 5815 5813 5812 5811 5811 5812 5811 5810 5808 5807 5808 5808 5808 5808
5810 5813 5815 5815 5816 5819 5820 5821 5824 5825 5825 5825 5825 5826 5827 5826 5826 5826 5824 5823 5821 5821 5821 5821 5821 5819 5817 5817 5816 5816 5814 5813 5813 5812 5813 5812 5811 5811 5811 5810 5810 5809
5802 5807 5812 5815 5816 5817 5819 5821 5823 5824 5825 5825 5825 5826 5827 5827 5826 5825 5825 5823 5822 5823 5823 5822 5822 5821 5820 5818 5817 5817 5816 5815 5814 5814 5813 5814 5814 5814 5814 5813 5813 5812
5797 5799 5803 5807 5811 5814 5818 5820 5821 5823 5825 5825 5826 5826 5826 5828 5827 5826 5826 5826 5824 5824 5824 5823 5823 5822 5821 5820 5818 5818 5817 5815 5815 5814 5814 5814 5814 5815 5815 5815 5816 5815
5794 5796 5798 5800 5803 5808 5814 5818 5820 5822 5824 5825 5825 5825 5825 5827 5828 5828 5827 5826 5826 5825 5825 5825 5823 5822 5821 5820 5819 5818 5818 5816 5816 5815 5814 5814 5814 5815 5816 5817 5817 5818
5796 5800 5804 5806 5805 5805 5810 5816 5819 5821 5822 5824 5824 5824 5825 5826 5828 5829 5829 5827 5826 5826 5825 5825 5824 5823 5823 5821 5819 5819 5817 5817 5817 5816 5815 5815 5815 5815 5816 5817 5818 5819
5795 5798 5802 5804 5804 5804 5807 5812 5817 5819 5819 5820 5822 5823 5824 5825 5825 5826 5827 5827 5826 5825 5824 5824 5825 5825 5825 5823 5822 5820 5819 5818 5817 5817 5817 5816 5815 5815 5815 5817 5818 5820
5788 5791 5794 5795 5797 5800 5803 5808 5812 5814 5813 5815 5818 5821 5822 5823 5823 5823 5825 5826 5827 5826 5824 5825 5826 5827 5827 5824 5823 5822 5821 5819 5817 5817 5818 5817 5816 5815 5815 5816 5818 5820
5784 5785 5789 5790 5793 5796 5798 5799 5801 5804 5804 5804 5808 5813 5817 5819 5819 5820 5822 5824 5826 5827 5827 5826 5827 5829 5828 5825 5824 5823 5821 5821 5819 5818 5818 5818 5817 5817 5816 5817 5817 5818
5779 5783 5786 5788 5790 5792 5790 5788 5790 5794 5794 5792 5792 5797 5805 5811 5815 5817 5819 5821 5822 5824 5826 5828 5829 5830 5829 5827 5825 5823 5822 5821 5820 5820 5818 5819 5819 5819 5818 5818 5817 5816
5771 5777 5781 5784 5787 5788 5786 5785 5786 5788 5789 5789 5789 5790 5790 5795 5805 5812 5816 5818 5820 5822 5824 5828 5831 5831 5831 5828 5826 5824 5822 5822 5821 5821 5820 5820 5820 5821 5821 5820 5819 5817
5767 5771 5775 5777 5781 5783 5783 5783 5786 5789 5790 5793 5797 5798 5795 5794 5798 5806 5814 5819 5821 5822 5822 5825 5829 5832 5830 5829 5827 5825 5822 5821 5822 5822 5821 5821 5821 5822 5822 5822 5821 5820
5765 5767 5769 5772 5774 5777 5778 5779 5783 5787 5789 5791 5796 5801 5804 5802 5800 5802 5808 5814 5818 5820 5820 5822 5826 5829 5828 5826 5826 5825 5821 5820 5820 5820 5820 5820 5820 5821 5822 5822 5823 5822
5762 5763 5765 5768 5771 5773 5774 5777 5781 5784 5787 5788 5791 5795 5798 5798 5796 5797 5800 5804 5808 5810 5811 5814 5819 5823 5823 5822 5822 5820 5817 5816 5817 5817 5818 5818 5819 5820 5821 5822 5822 5822
5758 5759 5760 5764 5767 5769 5772 5776 5780 5783 5787 5789 5790 5792 5794 5793 5794 5795 5798 5801 5802 5802 5803 5805 5809 5814 5816 5815 5816 5815 5814 5813 5814 5814 5814 5816 5818 5819 5820 5821 5821 5822
5754 5755 5754 5757 5761 5765 5769 5774 5778 5781 5784 5787 5788 5788 5789 5789 5790 5792 5796 5801 5803 5804 5805 5805 5806 5809 5810 5809 5810 5811 5812 5813 5812 5810 5811 5814 5815 5817 5818 5819 5821 5821
5751 5752 5752 5754 5757 5761 5766 5770 5774 5778 5781 5783 5784 5784 5784 5785 5786 5788 5791 5795 5799 5801 5803 5805 5805 5807 5808 5809 5809 5810 5811 5814 5812 5809 5810 5811 5814 5815 5816 5818 5820 5821